Back to catalog

STARLINK-30755

AliveCommunicationsVLEO
NORAD 58186·PAYLOAD·🇺🇸 United States

Launched Oct 30, 2023 from Cape Canaveral Space Force Station

Loading…

Next Passes (next 24 hours)

TLE

FreshSource: CelesTrak SupGP

Epoch: Sep 14, 2026, 14:16 UTC

1 58186C 23167M   26257.59493056 -.00018947  00000+0 -68759-3 0  2575
2 58186  43.0014 156.3162 0001417 263.0891 276.5323 15.27524463    16

Track STARLINK-30755 in real time with AllMySat

Download on the App Store